Aérodrome :
LOGIN :

S'inscrire | Disclaimer

   EN    FR    IT 

 










Légende :    VFR   VFR Marginal   IFR   IFR Intensif   IFR Très Intensif
Visi : 
Plafond : 
>= 8 km
>= 3000ft
5 à 8 km
1000 à 3000 ft
1500m à 5 km
500 à 1000 ft
800 à 1500m
200 à 500 ft
< 800m
< 200 ft
Symboles :   Orages  Brouillard  Fortes neiges  Fortes précipitations  Vent > 20 kt
SIGMETs :   Divers  Orages  Givrage  Turbulence  Onde Orograph.  Cendres Volcan.







- Altitude de l'aérodrome : 7 ft
- Code IATA : VCE


LIPZ - Marco Polo Int. Venezia

DERNIER METAR :
  • 121050Z 26004KT 230V310 CAVOK 07/M05 Q1020 NOSIG

METARs EXPIRÉS :
  • 121020Z VRB02KT CAVOK 06/M04 Q1020 NOSIG
  • 120950Z 02005KT 340V040 CAVOK 05/M04 Q1020 NOSIG
  • 120920Z 34005KT CAVOK 04/M05 Q1020 NOSIG
  • 120850Z 35005KT CAVOK 03/M05 Q1020 NOSIG

TAF TAF LIPZ
Valide du 12 à 12h jusqu'au 13 à 18h UTC


121100Z 1212/1318 34007KT 9999 FEW018
BECMG 1303/1305 04010KT
TEMPO 1306/1315 RA
Pas de NOTAMs connus pour ce terrain.



MET'MAP, la Météo Aéronautique d'un coup d'oeil ! - Copyright ORBIFLY Décembre 2007 - Disclaimer

ORBIFLY MET'MAP TEAM :

Programmation & Développement : Alexandra Zaïnal
Conception & Développement : Baudouin d'Aumeries
Co-Programmation & Développement : Marc-Olivier Méhu
Soutien technique & logistique : Manuel Goepfert

Contact : metmap@orbifly.com




SOURCES & CREDITS :

   NOAA